CW7625 Weather Reports


Display with metric or nautical units.
time (UTC)temp
F
wind
direction
speed
MPH
gust
MPH
rain 1hr
in
rain 24hr
in
rain mn
in
humidity
%
barometer
mb
20260903143108 83 46 2.0 7.0 0.00 0.00 0.00 79 1013.4
20260903142108 82 94 1.0 10.0 0.00 0.00 0.00 82 1013.5
20260903140108 82 194 6.0 8.0 0.00 0.00 0.00 84 1013.7
20260903135108 81 120 0.0 7.0 0.00 0.00 0.00 86 1013.7
20260903134108 80 60 4.0 7.0 0.00 0.00 0.00 88 1013.8
20260903133108 79 109 3.0 4.0 0.00 0.00 0.00 90 1013.7
20260903132108 77 76 2.0 4.0 0.00 0.00 0.00 90 1013.7
20260903131108 76 80 1.0 3.0 0.00 0.00 0.00 91 1013.7
20260903130108 76 59 2.0 3.0 0.00 0.00 0.00 92 1013.7
20260903125108 75 26 2.0 3.0 0.00 0.00 0.00 93 1013.7
20260903123108 73 18 0.0 0.0 0.00 0.00 0.00 93 1013.6
20260903120108 72 18 0.0 0.0 0.00 0.00 0.00 92 1013.5
20260903115108 72 18 0.0 0.0 0.00 0.00 0.00 92 1013.6
20260903114108 72 18 0.0 0.0 0.00 0.00 0.00 92 1013.4
20260903113108 72 18 0.0 0.0 0.00 0.00 0.00 91 1013.3
20260903112108 72 18 0.0 0.0 0.00 0.00 0.00 92 1013.3
20260903111108 72 18 0.0 0.0 0.00 0.00 0.00 91 1013.1
20260903110108 72 18 0.0 0.0 0.00 0.00 0.00 92 1013.0
20260903104108 72 18 0.0 0.0 0.00 0.00 0.00 92 1013.0
20260903103108 72 18 0.0 0.0 0.00 0.00 0.00 91 1012.8
20260903102108 72 18 0.0 0.0 0.00 0.00 0.00 91 1012.8
20260903101108 72 18 0.0 0.0 0.00 0.00 0.00 91 1012.9
20260903100108 73 18 0.0 0.0 0.00 0.00 0.00 91 1012.8
20260903095108 73 18 0.0 0.0 0.00 0.00 0.00 91 1012.8
20260903094109 73 18 0.0 0.0 0.00 0.00 0.00 91 1012.7
20260903091108 73 18 0.0 0.0 0.00 0.00 0.00 91 1012.9
20260903090108 73 18 0.0 0.0 0.00 0.00 0.00 90 1012.8
20260903084108 74 18 0.0 0.0 0.00 0.00 0.00 91 1012.9
20260903082108 74 18 0.0 0.0 0.00 0.00 0.00 90 1012.8
20260903081109 74 18 0.0 0.0 0.00 0.00 0.00 90 1012.6
20260903080108 74 18 0.0 0.0 0.00 0.00 0.00 90 1012.6
20260903075109 74 18 0.0 1.0 0.00 0.00 0.00 90 1012.5
20260903074108 74 18 0.0 0.0 0.00 0.00 0.00 90 1012.4
20260903073108 74 18 0.0 0.0 0.00 0.00 0.00 90 1012.4
20260903072108 74 18 0.0 0.0 0.00 0.00 0.00 89 1012.4
20260903071108 74 18 0.0 1.0 0.00 0.00 0.00 89 1012.5
20260903070108 75 18 0.0 1.0 0.00 0.00 0.00 89 1012.5
20260903065109 75 18 0.0 0.0 0.00 0.00 0.00 89 1012.4
20260903063108 75 18 0.0 0.0 0.00 0.00 0.00 88 1012.6
20260903062108 75 18 0.0 0.0 0.00 0.00 0.00 88 1012.6
20260903054109 76 18 0.0 0.0 0.00 0.00 0.00 86 1012.6
20260903053109 76 18 0.0 1.0 0.00 0.00 0.00 86 1012.6
20260903045108 78 18 0.0 0.0 0.00 0.00 0.00 84 1012.6
20260903044109 78 18 0.0 0.0 0.00 0.00 0.00 82 1012.5
20260903042109 79 18 0.0 1.0 0.00 0.00 0.00 80 1012.5
20260903041109 79 18 0.0 2.0 0.00 0.00 0.00 80 1012.4
20260903040108 80 18 0.0 0.0 0.00 0.00 0.00 79 1012.6
20260903035108 81 18 0.0 0.0 0.00 0.00 0.00 78 1012.7
20260903034108 81 18 0.0 0.0 0.00 0.00 0.00 77 1012.6
20260903032108 83 18 0.0 3.0 0.00 0.00 0.00 74 1012.5
20260903031109 83 17 0.0 2.0 0.00 0.00 0.00 73 1012.5
20260903030109 83 22 1.0 3.0 0.00 0.00 0.00 73 1012.6
20260903025108 84 21 1.0 3.0 0.00 0.00 0.00 72 1012.5
20260903024109 84 12 0.0 4.0 0.00 0.00 0.00 72 1012.5
20260903022108 84 136 2.0 3.0 0.00 0.00 0.00 71 1012.2
20260903021109 85 136 0.0 2.0 0.00 0.00 0.00 70 1012.1
20260903020111 86 136 1.0 3.0 0.00 0.00 0.00 68 1012.0
20260903014109 86 49 2.0 5.0 0.00 0.00 0.00 66 1011.6
20260903013109 87 44 1.0 4.0 0.00 0.00 0.00 65 1011.6
20260903012109 87 89 1.0 4.0 0.00 0.00 0.00 64 1011.4
20260903011109 88 75 1.0 5.0 0.00 0.00 0.00 63 1011.6
20260903010109 88 191 1.0 4.0 0.00 0.00 0.00 62 1011.6
20260903003109 90 74 3.0 7.0 0.00 0.00 0.00 61 1011.5
20260903002109 90 71 0.0 4.0 0.00 0.00 0.00 60 1011.4
20260903000109 91 36 3.0 8.0 0.00 0.00 0.00 60 1011.2
20260902235109 91 48 4.0 7.0 0.00 0.00 0.00 60 1011.1
20260902234109 92 271 2.0 13.0 0.00 0.00 0.00 59 1011.1
20260902233109 92 234 3.0 10.0 0.00 0.00 0.00 58 1011.1
20260902232108 92 27 3.0 12.0 0.00 0.00 0.00 58 1011.1
20260902231109 93 24 2.0 12.0 0.00 0.00 0.00 59 1011.0
20260902230109 93 263 2.0 13.0 0.00 0.00 0.00 59 1010.9
20260902225109 94 60 5.0 10.0 0.00 0.00 0.00 55 1010.8
20260902223109 95 238 3.0 11.0 0.00 0.00 0.00 54 1010.7
20260902222109 95 95 2.0 10.0 0.00 0.00 0.00 54 1010.7
20260902221109 95 50 9.0 13.0 0.00 0.00 0.00 54 1010.7
20260902220109 96 59 3.0 11.0 0.00 0.00 0.00 53 1010.8
20260902215109 96 78 10.0 12.0 0.00 0.00 0.00 52 1010.8
20260902213109 96 42 4.0 14.0 0.00 0.00 0.00 52 1011.0
20260902212109 96 121 3.0 8.0 0.00 0.00 0.00 53 1011.1
20260902211109 96 50 5.0 9.0 0.00 0.00 0.00 52 1011.4
20260902205109 97 180 2.0 12.0 0.00 0.00 0.00 53 1011.6
20260902204109 97 85 2.0 12.0 0.00 0.00 0.00 52 1011.7
20260902203109 96 213 2.0 16.0 0.00 0.00 0.00 51 1011.8
20260902202109 96 53 6.0 14.0 0.00 0.00 0.00 51 1011.9
20260902201109 96 57 6.0 9.0 0.00 0.00 0.00 53 1012.1
20260902200109 96 88 3.0 9.0 0.00 0.00 0.00 50 1012.1
20260902194109 96 62 3.0 12.0 0.00 0.00 0.00 54 1012.4
20260902192109 95 41 6.0 15.0 0.00 0.00 0.00 54 1012.6
20260902191109 94 106 1.0 10.0 0.00 0.00 0.00 55 1012.8
20260902190109 94 325 3.0 8.0 0.00 0.00 0.00 56 1012.8
20260902185109 94 82 5.0 9.0 0.00 0.00 0.00 56 1012.9
20260902184109 94 47 6.0 11.0 0.00 0.00 0.00 56 1013.1
20260902183109 93 50 3.0 11.0 0.00 0.00 0.00 58 1013.3
20260902181109 93 235 4.0 8.0 0.00 0.00 0.00 61 1013.7
20260902180109 92 211 4.0 10.0 0.00 0.00 0.00 59 1013.9
20260902175109 93 130 5.0 8.0 0.00 0.00 0.00 59 1014.0
20260902174109 92 95 3.0 12.0 0.00 0.00 0.00 60 1014.3
20260902172109 92 110 2.0 10.0 0.00 0.00 0.00 59 1014.6
20260902170109 92 50 4.0 14.0 0.00 0.00 0.00 60 1014.9
20260902165109 91 71 4.0 10.0 0.00 0.00 0.00 60 1014.9
20260902164109 92 39 7.0 9.0 0.00 0.00 0.00 60 1015.1
20260902162109 90 61 6.0 9.0 0.00 0.00 0.00 62 1015.1
20260902160109 90 71 2.0 10.0 0.00 0.00 0.00 63 1015.2
20260902155109 89 244 1.0 11.0 0.00 0.00 0.00 65 1015.1
20260902153109 88 111 1.0 8.0 0.00 0.00 0.00 69 1015.0
20260902151109 88 53 3.0 7.0 0.00 0.00 0.00 69 1015.0
20260902150109 87 55 6.0 8.0 0.00 0.00 0.00 71 1014.8
20260902145109 86 72 1.0 6.0 0.00 0.00 0.00 72 1014.8